CAPE
0 0 0 0 0 0 0 0 0 0 0 0 0 0 0 0 0 0 0 0 0 260 634 992 1235 1223 1269 974 779 881 1031 1236 1255 1025 800 532 538 482 488 464 401 589 628 620
0 0 0 0 0 0 0 0 0 0 0 0 0 0 0 0 0 0 0 0 0 0 0 128 725 669 669 707 691 789 556 936 1082 1108 962 761 706 571 615 651 600 387 207 397
0 0 0 0 0 0 0 0 0 0 0 0 0 0 0 0 0 0 0 0 0 0 0 0 454 650 616 604 713 800 708 420 941 1086 1095 1136 1018 983 931 868 770 698 355 448
0 0 0 0 0 0 0 0 0 0 0 0 0 0 0 0 0 0 0 0 0 0 0 0 130 679 741 581 445 489 446 720 904 1111 1118 1056 981 863 879 708 594 473 270 169
0 0 0 0 0 0 0 0 0 0 0 0 0 0 0 0 0 0 0 0 0 0 0 0 0 388 702 737 627 545 558 582 799 963 697 621 618 750 744 378 157 274 184 174
1 5 1 0 0 0 0 0 0 0 0 0 0 0 0 0 0 0 0 0 0 0 0 0 0 15 252 415 502 389 246 169 204 299 413 495 508 450 316 241 203 394 242 228
64 65 1 16 3 0 0 0 0 0 0 0 0 0 0 0 0 0 0 0 0 1 0 0 0 9 100 161 294 289 362 455 551 603 687 671 565 419 249 174 184 213 218 227
51 41 27 27 11 0 0 0 0 0 0 0 0 0 0 0 0 2 3 14 26 5 1 15 29 14 169 318 501 638 729 941 908 717 459 367 236 124 69 32 28 19 42 6
79 28 5 27 5 5 0 0 0 0 0 0 0 0 21 5 0 1 80 82 67 50 32 71 160 386 455 611 728 685 664 512 263 137 115 125 129 91 45 12 13 12 10 6
33 130 24 22 33 7 0 0 0 0 0 0 0 0 0 22 1 53 136 142 173 185 253 364 570 702 773 797 728 628 462 319 178 87 83 73 61 40 13 1 0 1 8 9
62 30 12 9 25 2 0 0 0 0 0 0 0 0 36 30 81 167 200 291 335 315 357 484 581 654 522 522 437 426 224 86 67 57 37 6 0 0 0 0 0 0 0 0
25 0 0 0 3 7 0 0 0 0 0 0 0 0 87 76 87 222 293 341 366 370 379 313 277 208 139 127 86 65 52 20 0 0 0 0 0 0 0 0 0 0 0 0
44 14 0 12 2 0 0 0 0 0 0 0 0 25 73 99 135 151 204 227 228 223 213 166 123 49 23 6 0 0 0 0 0 0 0 0 0 0 0 0 0 0 0 0
75 13 0 0 0 0 0 0 0 0 0 0 1 52 48 59 90 86 115 116 90 91 79 35 12 8 5 0 0 0 0 0 0 0 0 0 0 0 0 0 0 0 0 0
47 12 7 0 0 0 0 0 0 0 5 0 36 135 112 104 80 66 50 41 8 3 0 0 1 0 0 0 0 0 0 0 0 0 0 0 0 0 0 0 0 0 0 0
7 10 20 41 124 77 0 0 0 0 25 48 88 93 107 89 63 64 42 25 14 0 0 0 0 0 0 0 0 0 0 0 0 0 0 0 0 0 0 0 0 0 0 0
1 0 0 8 88 124 46 64 10 47 74 63 86 86 63 49 63 60 59 49 20 15 17 5 0 0 0 0 0 0 0 0 0 0 0 0 0 0 0 0 0 0 0 0
0 4 0 6 17 0 48 134 86 81 77 95 100 84 63 61 38 67 38 30 9 23 21 0 0 0 0 0 0 0 0 0 0 0 0 0 0 0 0 0 0 0 0 0
0 1 2 0 22 66 159 96 92 51 62 67 41 86 102 79 20 23 2 5 12 11 8 2 0 0 0 0 0 0 0 0 0 0 0 0 0 0 0 0 0 0 0 0
0 0 0 0 26 2 34 58 64 41 54 64 60 52 95 40 16 6 0 11 13 14 4 1 8 5 7 0 0 0 0 0 0 0 0 0 0 0 0 0 0 0 0 0
0 1 0 0 0 6 14 26 27 3 0 23 41 16 16 22 42 26 5 16 10 15 7 11 2 0 0 0 0 0 0 0 0 0 0 0 0 0 0 0 0 0 0 0
0 0 0 0 0 9 9 5 8 8 2 31 17 7 12 14 23 19 27 34 19 8 11 13 0 0 0 0 0 0 0 0 0 0 0 0 0 0 0 0 0 0 0 0
1 0 0 0 0 1 0 3 4 0 0 0 18 18 25 36 21 9 1 3 6 2 0 0 0 0 0 0 0 0 0 0 0 0 0 0 0 10 8 0 0 0 0 0
0 0 0 0 0 8 1 2 1 0 0 0 8 29 19 14 7 0 0 0 0 0 0 0 0 0 0 0 0 0 0 0 0 0 0 1 0 0 0 0 0 0 0 0
0 0 0 0 0 3 1 0 3 0 0 32 12 5 7 0 0 0 0 0 0 0 0 0 0 0 0 0 0 0 0 0 0 3 2 11 9 2 0 0 0 0 0 0
0 0 0 8 0 0 0 0 0 0 0 11 16 8 0 0 0 0 0 0 0 0 0 0 0 0 0 0 0 0 0 0 0 0 0 0 1 1 0 0 0 0 0 0
CIN
-0 -0 -0 -0 -0 -0 -0 -0 -0 -0 -0 -0 -0 -0 -0 -0 -0 -0 -0 -0 -0 -165 -115 -86 -77 -75 -60 -83 -65 -160 -172 -156 -120 -115 -79 -232 -212 -211 -138 -56 -124 -84 -72 -69
-0 -0 -0 -0 -0 -0 -0 -0 -0 -0 -0 -0 -0 -0 -0 -0 -0 -0 -0 -0 -0 -0 -0 -368 -116 -88 -119 -115 -156 -122 -249 -243 -165 -109 -95 -83 -47 -23 -35 -64 -105 -108 -76 -99
-0 -0 -0 -0 -0 -0 -0 -0 -0 -0 -0 -0 -0 -0 -0 -0 -0 -0 -0 -0 -0 -0 -0 -0 -207 -87 -72 -125 -126 -85 -97 -203 -199 -133 -135 -114 -98 -89 -79 -55 -72 -52 -16 -90
-0 -0 -0 -0 -0 -0 -0 -0 -0 -0 -0 -0 -0 -0 -0 -0 -0 -0 -0 -0 -0 -0 -0 -0 -351 -159 -100 -95 -124 -114 -77 -121 -78 -111 -72 -69 -75 -65 -66 -64 -74 -75 -88 -103
-0 -0 -0 -0 -0 -0 -0 -0 -0 -0 -0 -0 -0 -0 -0 -0 -0 -0 -0 -0 -0 -0 -0 -0 -0 -229 -125 -129 -115 -113 -94 -108 -114 -74 -86 -97 -104 -62 -53 -62 -81 -66 -81 -228
-0 -3 -3 -0 -0 -0 -0 -0 -0 -0 -0 -0 -0 -0 -0 -0 -0 -0 -0 -0 -0 -0 -0 -0 -0 -246 -184 -160 -137 -124 -213 -377 -329 -254 -212 -136 -118 -86 -86 -64 -106 -76 -94 -61
-0 -12 -2 -12 -11 -0 -0 -0 -0 -0 -0 -0 -0 -0 -0 -0 -0 -0 -0 -0 -0 -0 -0 -0 -0 -412 -571 -512 -429 -390 -352 -270 -224 -199 -155 -118 -95 -69 -106 -88 -92 -72 -77 -97
-1 -1 -4 -13 -21 -0 -0 -0 -0 -0 -0 -0 -0 -0 -0 -0 -0 -0 -21 -427 -466 -123 -10 -550 -503 -493 -469 -386 -293 -230 -158 -108 -74 -66 -76 -58 -51 -43 -50 -26 -13 -21 -11 -25
-0 -3 -14 -2 -5 -8 -0 -0 -0 -0 -0 -0 -0 -0 -124 -196 -0 -33 -312 -350 -395 -361 -394 -432 -404 -331 -292 -223 -159 -138 -122 -89 -84 -41 -16 -116 -88 -74 -46 -28 -8 -16 -6 -6
-9 -13 -27 -3 -5 -2 -0 -0 -0 -0 -0 -0 -0 -0 -0 -127 -47 -221 -228 -253 -256 -275 -267 -230 -180 -151 -129 -96 -88 -85 -92 -102 -52 -39 -61 -58 -48 -49 -64 -16 -0 -1 -35 -62
-25 -14 -5 -2 -10 -6 -0 -0 -0 -0 -0 -0 -0 -0 -117 -137 -160 -138 -142 -146 -150 -166 -162 -126 -101 -76 -72 -59 -59 -60 -75 -64 -60 -53 -44 -18 -0 -0 -0 -0 -0 -0 -0 -0
-18 -1 -4 -0 -0 -21 -0 -0 -0 -0 -0 -0 -0 -0 -53 -83 -122 -79 -72 -75 -81 -83 -86 -75 -64 -58 -66 -57 -52 -51 -32 -46 -0 -0 -0 -0 -0 -0 -0 -0 -0 -0 -0 -0
-11 -0 -0 -0 -2 -0 -0 -0 -0 -0 -0 -0 -0 -24 -53 -61 -57 -55 -90 -74 -64 -57 -66 -72 -64 -69 -71 -47 -0 -0 -0 -0 -0 -0 -0 -0 -0 -0 -0 -0 -0 -0 -0 -0
-5 -3 -0 -0 -0 -0 -0 -0 -0 -0 -0 -0 -10 -109 -83 -77 -87 -119 -96 -82 -76 -82 -88 -67 -61 -75 -75 -0 -0 -0 -0 -0 -0 -0 -0 -0 -0 -0 -0 -0 -0 -0 -0 -0
-1 -13 -77 -0 -0 -0 -0 -0 -0 -0 -31 -0 -98 -51 -131 -123 -106 -100 -84 -39 -95 -74 -4 -0 -17 -0 -0 -0 -0 -0 -0 -0 -0 -0 -0 -0 -0 -0 -0 -0 -0 -0 -0 -0
-4 -14 -30 -42 -6 -11 -0 -0 -0 -2 -256 -241 -135 -150 -131 -111 -116 -86 -120 -86 -71 -9 -0 -0 -0 -0 -0 -0 -0 -0 -0 -0 -0 -0 -0 -0 -0 -0 -0 -0 -0 -0 -0 -0
-2 -23 -1 -4 -65 -39 -48 -140 -94 -185 -159 -174 -151 -192 -135 -93 -91 -114 -91 -76 -30 -17 -0 -0 -0 -0 -0 -0 -0 -0 -0 -0 -0 -0 -0 -0 -0 -0 -0 -0 -0 -0 -0 -0
-2 -50 -2 -11 -4 -0 -53 -100 -157 -195 -174 -162 -122 -104 -130 -162 -150 -121 -71 -39 -31 -0 -0 -2 -0 -0 -0 -0 -0 -0 -0 -0 -0 -0 -0 -0 -0 -0 -0 -0 -0 -0 -0 -0
-0 -2 -10 -0 -14 -23 -56 -97 -148 -188 -141 -104 -54 -108 -128 -133 -117 -58 -73 -0 -0 -0 -0 -0 -2 -0 -0 -0 -0 -0 -0 -0 -0 -0 -0 -0 -0 -0 -0 -0 -0 -0 -0 -0
-0 -0 -0 -2 -17 -2 -80 -96 -81 -85 -125 -114 -130 -85 -146 -100 -77 -71 -3 -2 -3 -0 -6 -1 -0 -0 -0 -0 -0 -0 -0 -0 -0 -0 -0 -0 -0 -0 -0 -0 -0 -0 -0 -0
-0 -5 -0 -0 -0 -10 -36 -52 -40 -14 -0 -99 -95 -45 -40 -64 -13 -13 -6 -0 -2 -0 -1 -2 -0 -0 -0 -0 -0 -0 -0 -0 -0 -0 -0 -0 -0 -0 -0 -0 -0 -0 -0 -0
-0 -2 -0 -0 -0 -15 -4 -17 -9 -13 -54 -53 -73 -40 -16 -2 -0 -5 -0 -0 -1 -2 -0 -0 -0 -0 -0 -0 -0 -0 -0 -0 -0 -0 -0 -0 -0 -0 -0 -0 -0 -0 -0 -0
-56 -0 -0 -0 -0 -0 -0 -10 -18 -0 -0 -1 -4 -2 -8 -3 -0 -1 -0 -0 -0 -0 -0 -0 -0 -0 -0 -0 -0 -0 -0 -0 -0 -0 -0 -0 -0 -0 -0 -0 -0 -0 -0 -0
-0 -0 -0 -0 -0 -0 -0 -1 -2 -0 -0 -4 -5 -8 -11 -0 -6 -0 -0 -0 -0 -0 -0 -0 -0 -0 -0 -0 -0 -0 -0 -0 -0 -0 -0 -0 -0 -0 -0 -0 -0 -0 -0 -0
-0 -0 -0 -0 -0 -6 -4 -0 -1 -0 -0 -1 -0 -0 -0 -0 -0 -0 -0 -0 -0 -0 -0 -0 -0 -0 -0 -0 -0 -0 -0 -0 -0 -0 -1 -0 -0 -0 -0 -0 -0 -0 -0 -0
-0 -0 -0 -0 -0 -0 -0 -0 -0 -0 -0 -1 -0 -0 -0 -0 -0 -0 -0 -0 -0 -0 -0 -0 -0 -0 -0 -0 -0 -0 -0 -0 -0 -0 -0 -1 -1 -5 -0 -0 -0 -0 -0 -0
Wind_Speed
nan nan nan nan nan nan nan nan nan nan nan nan nan nan nan nan nan nan nan nan nan 41 42 47 53 57 55 50 49 47 44 41 45 44 42 42 39 42 42 42 41 45 49 49
nan nan nan nan nan nan nan nan nan nan nan nan nan nan nan nan nan nan nan nan nan nan nan 49 52 53 53 50 48 49 46 47 48 48 46 44 45 44 46 45 46 47 49 51
nan nan nan nan nan nan nan nan nan nan nan nan nan nan nan nan nan nan nan nan nan nan nan nan 55 52 55 54 51 50 56 56 54 53 50 48 49 48 48 47 45 46 46 47
nan nan nan nan nan nan nan nan nan nan nan nan nan nan nan nan nan nan nan nan nan nan nan nan 53 60 58 58 68 67 65 63 62 55 47 48 48 51 48 49 45 44 46 45
nan nan nan nan nan nan nan nan nan nan nan nan nan nan nan nan nan nan nan nan nan nan nan nan nan 46 60 64 67 71 71 67 63 61 57 60 58 54 53 51 50 47 47 52
nan nan nan nan nan nan nan nan nan nan nan nan nan nan nan nan nan nan nan nan nan nan nan nan nan nan 60 63 63 61 63 63 63 63 60 60 60 56 55 52 53 57 59 53
nan nan nan nan nan nan nan nan nan nan nan nan nan nan nan nan nan nan nan nan nan nan nan nan nan nan 51 56 57 59 61 61 59 61 59 58 58 58 57 54 48 48 47 44
nan nan nan nan nan nan nan nan nan nan nan nan nan nan nan nan nan nan nan nan nan nan nan nan nan nan 46 47 48 48 48 52 52 52 51 49 41 37 nan nan nan nan nan nan
nan nan nan nan nan nan nan nan nan nan nan nan nan nan nan nan nan nan nan nan nan nan nan nan 41 41 41 37 36 42 45 43 35 35 32 30 30 nan nan nan nan nan nan nan
nan 27 nan nan nan nan nan nan nan nan nan nan nan nan nan nan nan nan 34 39 39 38 41 39 38 37 34 35 34 35 34 32 27 nan nan nan nan nan nan nan nan nan nan nan
nan nan nan nan nan nan nan nan nan nan nan nan nan nan nan nan nan 30 35 34 34 39 38 35 36 35 35 34 28 29 30 nan nan nan nan nan nan nan nan nan nan nan nan nan
nan nan nan nan nan nan nan nan nan nan nan nan nan nan nan nan nan 29 35 33 32 32 32 33 35 36 38 36 nan nan nan nan nan nan nan nan nan nan nan nan nan nan nan nan
nan nan nan nan nan nan nan nan nan nan nan nan nan nan nan nan 32 34 37 35 31 31 29 27 28 nan nan nan nan nan nan nan nan nan nan nan nan nan nan nan nan nan nan nan
nan nan nan nan nan nan nan nan nan nan nan nan nan nan nan nan nan nan 34 34 nan nan nan nan nan nan nan nan nan nan nan nan nan nan nan nan nan nan nan nan nan nan nan nan
nan nan nan nan nan nan nan nan nan nan nan nan nan 16 13 22 nan nan nan nan nan nan nan nan nan nan nan nan nan nan nan nan nan nan nan nan nan nan nan nan nan nan nan nan
nan nan nan nan 29 nan nan nan nan nan nan nan nan nan 31 nan nan nan nan nan nan nan nan nan nan nan nan nan nan nan nan nan nan nan nan nan nan nan nan nan nan nan nan nan
nan nan nan nan nan 28 nan nan nan nan nan nan nan nan nan nan nan nan nan nan nan nan nan nan nan nan nan nan nan nan nan nan nan nan nan nan nan nan nan nan nan nan nan nan
nan nan nan nan nan nan nan 35 nan nan nan nan 32 nan nan nan nan nan nan nan nan nan nan nan nan nan nan nan nan nan nan nan nan nan nan nan nan nan nan nan nan nan nan nan
nan nan nan nan nan nan 32 nan nan nan nan nan nan nan 26 nan nan nan nan nan nan nan nan nan nan nan nan nan nan nan nan nan nan nan nan nan nan nan nan nan nan nan nan nan
nan nan nan nan nan nan nan nan nan nan nan nan nan nan nan nan nan nan nan nan nan nan nan nan nan nan nan nan nan nan nan nan nan nan nan nan nan nan nan nan nan nan nan nan
nan nan nan nan nan nan nan nan nan nan nan nan nan nan nan nan nan nan nan nan nan nan nan nan nan nan nan nan nan nan nan nan nan nan nan nan nan nan nan nan nan nan nan nan
nan nan nan nan nan nan nan nan nan nan nan nan nan nan nan nan nan nan nan nan nan nan nan nan nan nan nan nan nan nan nan nan nan nan nan nan nan nan nan nan nan nan nan nan
nan nan nan nan nan nan nan nan nan nan nan nan nan nan nan nan nan nan nan nan nan nan nan nan nan nan nan nan nan nan nan nan nan nan nan nan nan nan nan nan nan nan nan nan
nan nan nan nan nan nan nan nan nan nan nan nan nan nan nan nan nan nan nan nan nan nan nan nan nan nan nan nan nan nan nan nan nan nan nan nan nan nan nan nan nan nan nan nan
nan nan nan nan nan nan nan nan nan nan nan nan nan nan nan nan nan nan nan nan nan nan nan nan nan nan nan nan nan nan nan nan nan nan nan nan nan nan nan nan nan nan nan nan
nan nan nan nan nan nan nan nan nan nan nan nan nan nan nan nan nan nan nan nan nan nan nan nan nan nan nan nan nan nan nan nan nan nan nan nan nan nan nan nan nan nan nan nan
Wind_Direction
nan nan nan nan nan nan nan nan nan nan nan nan nan nan nan nan nan nan nan nan nan 245 245 246 253 257 259 260 267 269 267 267 267 264 265 265 269 270 270 272 268 272 274 273
nan nan nan nan nan nan nan nan nan nan nan nan nan nan nan nan nan nan nan nan nan nan nan 246 252 257 261 263 261 266 269 271 267 265 266 268 272 271 271 270 270 270 274 275
nan nan nan nan nan nan nan nan nan nan nan nan nan nan nan nan nan nan nan nan nan nan nan nan 248 251 256 260 264 265 265 267 268 270 271 268 268 267 267 269 269 270 272 272
nan nan nan nan nan nan nan nan nan nan nan nan nan nan nan nan nan nan nan nan nan nan nan nan 251 253 252 256 257 263 267 272 274 279 271 269 269 271 273 277 282 282 278 274
nan nan nan nan nan nan nan nan nan nan nan nan nan nan nan nan nan nan nan nan nan nan nan nan nan 255 252 256 258 263 269 271 271 275 278 280 278 276 275 273 277 282 275 279
nan nan nan nan nan nan nan nan nan nan nan nan nan nan nan nan nan nan nan nan nan nan nan nan nan nan 258 261 260 261 264 266 269 273 274 273 273 272 273 276 275 277 277 283
nan nan nan nan nan nan nan nan nan nan nan nan nan nan nan nan nan nan nan nan nan nan nan nan nan nan 249 255 259 261 261 259 260 262 263 266 267 269 275 279 285 285 287 284
nan nan nan nan nan nan nan nan nan nan nan nan nan nan nan nan nan nan nan nan nan nan nan nan nan nan 250 252 253 258 259 259 259 264 265 265 273 278 nan nan nan nan nan nan
nan nan nan nan nan nan nan nan nan nan nan nan nan nan nan nan nan nan nan nan nan nan nan nan 237 239 241 245 247 253 256 263 263 259 261 267 268 nan nan nan nan nan nan nan
nan 205 nan nan nan nan nan nan nan nan nan nan nan nan nan nan nan nan 230 238 239 242 242 237 233 234 238 242 250 248 252 259 261 nan nan nan nan nan nan nan nan nan nan nan
nan nan nan nan nan nan nan nan nan nan nan nan nan nan nan nan nan 239 243 242 244 244 241 234 239 240 241 243 244 245 245 nan nan nan nan nan nan nan nan nan nan nan nan nan
nan nan nan nan nan nan nan nan nan nan nan nan nan nan nan nan nan 232 245 241 237 243 251 250 248 246 242 237 nan nan nan nan nan nan nan nan nan nan nan nan nan nan nan nan
nan nan nan nan nan nan nan nan nan nan nan nan nan nan nan nan 230 233 241 239 241 244 239 236 248 nan nan nan nan nan nan nan nan nan nan nan nan nan nan nan nan nan nan nan
nan nan nan nan nan nan nan nan nan nan nan nan nan nan nan nan nan nan 233 245 nan nan nan nan nan nan nan nan nan nan nan nan nan nan nan nan nan nan nan nan nan nan nan nan
nan nan nan nan nan nan nan nan nan nan nan nan nan 243 240 229 nan nan nan nan nan nan nan nan nan nan nan nan nan nan nan nan nan nan nan nan nan nan nan nan nan nan nan nan
nan nan nan nan 211 nan nan nan nan nan nan nan nan nan 223 nan nan nan nan nan nan nan nan nan nan nan nan nan nan nan nan nan nan nan nan nan nan nan nan nan nan nan nan nan
nan nan nan nan nan 207 nan nan nan nan nan nan nan nan nan nan nan nan nan nan nan nan nan nan nan nan nan nan nan nan nan nan nan nan nan nan nan nan nan nan nan nan nan nan
nan nan nan nan nan nan nan 191 nan nan nan nan 239 nan nan nan nan nan nan nan nan nan nan nan nan nan nan nan nan nan nan nan nan nan nan nan nan nan nan nan nan nan nan nan
nan nan nan nan nan nan 197 nan nan nan nan nan nan nan 259 nan nan nan nan nan nan nan nan nan nan nan nan nan nan nan nan nan nan nan nan nan nan nan nan nan nan nan nan nan
nan nan nan nan nan nan nan nan nan nan nan nan nan nan nan nan nan nan nan nan nan nan nan nan nan nan nan nan nan nan nan nan nan nan nan nan nan nan nan nan nan nan nan nan
nan nan nan nan nan nan nan nan nan nan nan nan nan nan nan nan nan nan nan nan nan nan nan nan nan nan nan nan nan nan nan nan nan nan nan nan nan nan nan nan nan nan nan nan
nan nan nan nan nan nan nan nan nan nan nan nan nan nan nan nan nan nan nan nan nan nan nan nan nan nan nan nan nan nan nan nan nan nan nan nan nan nan nan nan nan nan nan nan
nan nan nan nan nan nan nan nan nan nan nan nan nan nan nan nan nan nan nan nan nan nan nan nan nan nan nan nan nan nan nan nan nan nan nan nan nan nan nan nan nan nan nan nan
nan nan nan nan nan nan nan nan nan nan nan nan nan nan nan nan nan nan nan nan nan nan nan nan nan nan nan nan nan nan nan nan nan nan nan nan nan nan nan nan nan nan nan nan
nan nan nan nan nan nan nan nan nan nan nan nan nan nan nan nan nan nan nan nan nan nan nan nan nan nan nan nan nan nan nan nan nan nan nan nan nan nan nan nan nan nan nan nan
nan nan nan nan nan nan nan nan nan nan nan nan nan nan nan nan nan nan nan nan nan nan nan nan nan nan nan nan nan nan nan nan nan nan nan nan nan nan nan nan nan nan nan nan